Date,TemperatureHighF,TemperatureAvgF,TemperatureLowF,DewpointHighF,DewpointAvgF,DewpointLowF,HumidityHigh,HumidityAvg,HumidityLow,PressureMaxIn,PressureMinIn,WindSpeedMaxMPH,WindSpeedAvgMPH,GustSpeedMaxMPH,PrecipitationSumIn
2013-1-1,27.8,12.9,9.7,18.8,-24.7,-99.9,92,54,65,30.71,30.52,3,-344,4,0.00
2013-1-2,10.7,9.3,7.6,8.6,6.9,4.7,91,90,88,30.71,30.68,3,1,4,0.00
2013-1-7,13.8,2.0,13.3,11.4,-83.6,-99.9,91,13,90,30.47,30.40,1,-852,1,0.00
2013-1-8,31.9,15.2,20.0,25.6,-29.5,-99.9,91,49,76,30.51,30.46,2,-424,3,0.00
2013-1-10,32.2,7.7,27.1,18.1,-70.7,-99.9,68,14,46,30.01,29.83,13,-745,22,0.00
2013-1-11,-200.0,0.0,200.0,-99.9,-99.9,-99.9,0,0,100,30.09,30.01,0,-999,0,0.00
2013-1-12,23.0,8.3,8.0,12.4,-39.2,-99.9,83,41,55,30.46,30.31,3,-434,4,0.00
2013-1-13,22.1,10.1,2.5,10.4,-12.1,-99.9,87,62,51,30.64,30.43,8,-163,10,0.00
2013-1-14,24.7,12.3,2.8,9.4,-12.2,-99.9,87,56,46,30.79,30.64,5,-168,7,0.00
2013-1-15,32.0,17.9,9.9,13.5,-8.8,-99.9,80,51,43,30.92,30.78,3,-166,5,0.00
2013-1-16,33.9,18.8,11.5,15.7,-7.2,-99.9,87,54,46,30.92,30.78,3,-168,6,0.00
2013-1-17,32.4,18.2,10.6,17.1,-6.4,-99.9,89,58,52,30.82,30.67,4,-170,6,0.00
2013-1-18,33.3,18.3,11.9,17.5,-5.2,-99.9,90,60,51,30.74,30.62,3,-166,5,0.00
2013-1-19,33.8,19.2,10.2,19.8,-2.9,-99.9,91,61,51,30.76,30.62,4,-150,7,0.00
2013-1-20,34.7,19.2,7.6,19.0,-4.9,-99.9,91,59,49,30.74,30.61,5,-165,7,0.00
2013-1-21,38.1,21.0,13.0,18.6,-3.6,-99.9,91,56,44,30.68,30.49,4,-161,6,0.00
2013-1-22,24.2,6.7,12.6,17.1,-55.1,-99.9,91,34,74,30.55,30.37,2,-602,3,0.00
2013-1-23,-200.0,0.0,200.0,-99.9,-99.9,-99.9,0,0,100,30.44,29.93,0,-999,0,0.00
2013-1-24,-200.0,0.0,200.0,-99.9,-99.9,-99.9,0,0,100,30.11,30.00,0,-999,0,0.00
2013-1-25,-200.0,0.0,200.0,-99.9,-99.9,-99.9,0,0,100,30.10,29.87,0,-999,0,0.00
2013-1-26,-200.0,0.0,200.0,-99.9,-99.9,-99.9,0,0,100,29.87,29.61,0,-999,0,0.00
2013-1-27,36.7,14.9,22.0,22.8,-41.2,-99.9,76,31,46,30.18,29.69,14,-497,18,0.00
2013-1-28,39.2,27.6,19.4,28.1,5.7,-99.9,77,56,45,30.26,30.16,11,-115,17,0.00
2013-1-29,48.9,36.1,34.3,31.5,9.6,-99.9,78,50,47,30.40,30.17,18,-144,21,0.00
2013-1-30,55.1,36.7,31.7,33.5,10.5,-99.9,86,53,37,30.44,30.34,9,-144,12,0.00
2013-1-31,55.2,36.6,29.6,33.0,14.6,-99.9,88,58,41,30.40,30.22,6,-117,10,0.00
2013-2-1,53.0,35.6,26.9,34.9,14.8,-99.9,93,61,45,30.39,30.27,5,-117,8,0.00
2013-2-2,46.1,32.8,28.5,33.9,13.1,-99.9,92,65,58,30.43,30.33,3,-130,5,0.00
2013-2-3,53.4,34.4,27.5,35.1,11.9,-99.9,94,59,41,30.34,30.22,6,-130,9,0.00
2013-2-4,57.2,37.2,27.0,27.9,7.8,-99.9,86,44,28,30.27,30.07,8,-133,10,0.00
2013-2-5,61.2,40.2,32.2,26.8,2.5,-99.9,70,33,12,30.08,29.84,17,-131,21,0.00
2013-2-6,50.5,35.3,28.4,28.8,7.3,-99.9,85,44,27,30.15,30.03,5,-113,8,0.00
2013-2-7,51.2,18.5,26.1,19.0,-49.0,-99.9,58,16,13,30.05,29.81,22,-541,29,0.00
2013-2-8,37.4,16.3,26.4,24.3,-40.9,-99.9,73,29,52,29.89,29.78,11,-509,20,0.00
2013-2-10,42.9,42.3,40.8,13.9,13.1,12.4,32,30,29,30.13,30.12,10,7,14,0.00
2013-2-11,38.5,30.4,25.9,18.1,14.9,10.4,61,52,42,30.38,30.31,4,2,13,0.00
2013-2-12,50.4,32.7,21.4,20.7,3.9,-99.9,67,41,30,30.47,30.37,6,-112,8,0.00
2013-2-13,52.4,35.0,26.0,25.1,6.1,-99.9,77,44,33,30.46,30.31,5,-132,8,0.00
2013-2-14,52.0,36.0,27.0,28.9,9.8,-99.9,76,48,38,30.49,30.35,4,-116,6,0.00
2013-2-15,54.4,37.0,27.2,28.8,12.1,-99.9,84,49,33,30.52,30.36,4,-100,6,0.00
2013-2-16,57.0,27.3,28.0,27.3,-18.7,-99.9,77,33,21,30.39,30.05,6,-327,8,0.00
2013-2-17,48.9,35.4,27.4,27.8,2.3,-99.9,65,34,19,30.09,29.99,10,-110,14,0.00
2013-2-18,51.9,34.8,22.1,17.4,1.5,-99.9,69,34,23,30.10,29.76,14,-111,17,0.00
2013-2-19,47.5,34.8,33.5,27.3,1.1,-99.9,76,35,18,29.77,29.50,22,-126,30,0.00
2013-2-20,43.7,31.2,26.7,20.9,-1.8,-99.9,67,35,20,30.00,29.66,14,-129,20,0.00
2013-2-21,45.3,31.7,24.4,19.5,-0.1,-99.9,58,35,19,30.18,29.98,9,-109,14,0.00
2013-2-22,52.5,37.1,28.6,24.3,5.0,-99.9,72,37,25,30.28,29.99,16,-119,21,0.00
2013-2-23,46.4,23.0,21.2,31.5,-21.5,-99.9,75,35,30,30.31,29.84,25,-333,32,0.00
2013-2-24,41.3,27.6,18.0,17.4,-1.6,-99.9,78,41,24,30.51,30.31,4,-118,6,0.00
2013-2-25,28.4,15.1,21.7,13.9,-30.0,-99.9,66,36,48,30.36,30.24,4,-366,5,0.00
2013-2-28,61.5,53.1,40.9,31.3,27.2,17.9,61,38,25,30.47,30.36,4,0,8,0.00
2013-3-1,64.7,45.2,34.5,34.5,16.8,-99.9,79,43,25,30.48,30.28,4,-96,5,0.00
2013-3-2,65.4,48.7,35.7,29.0,14.0,-99.9,69,33,19,30.31,29.97,7,-88,11,0.00
2013-3-3,54.4,40.0,42.2,41.8,19.2,-99.9,90,65,28,30.00,29.91,11,-130,14,0.13
2013-3-4,54.4,39.4,35.4,38.8,17.1,-99.9,85,56,43,30.15,29.99,6,-114,8,0.00
2013-3-5,65.9,43.8,31.1,34.4,13.5,-99.9,89,43,13,30.00,29.65,22,-101,30,0.00
2013-3-6,49.7,28.8,33.0,29.7,-18.4,-99.9,61,28,26,29.94,29.63,33,-315,34,0.00
2013-3-7,42.7,31.9,29.2,29.2,8.1,-99.9,83,52,40,29.98,29.89,7,-115,10,0.00
2013-3-8,48.7,35.1,30.6,27.9,10.0,-99.9,84,50,36,29.99,29.83,5,-114,10,0.00
2013-3-9,53.4,38.1,30.2,22.4,-0.5,-99.9,65,28,10,30.41,29.99,5,-94,11,0.00
2013-3-10,56.6,39.6,27.8,16.5,-1.0,-99.9,50,24,14,30.50,30.34,5,-101,6,0.00
2013-3-11,63.2,44.9,32.8,18.1,1.4,-99.9,42,22,11,30.35,30.13,5,-92,8,0.00
2013-3-12,69.3,49.7,34.0,22.9,10.8,-99.9,52,26,13,30.22,30.08,5,-62,6,0.00
2013-3-13,75.5,36.7,37.3,26.3,-21.4,-99.9,52,18,10,30.19,30.01,3,-348,6,0.00
2013-3-14,68.7,41.0,45.7,28.5,-15.7,-99.9,48,17,16,30.08,29.98,3,-316,4,0.00
2013-3-15,72.2,54.2,41.1,29.4,13.0,-99.9,57,26,9,30.07,29.91,8,-65,9,0.00
2013-3-16,69.5,52.8,41.7,28.1,14.1,-99.9,52,27,10,29.97,29.76,4,-62,6,0.00
2013-3-17,61.9,48.8,39.4,24.8,9.0,-99.9,51,24,11,30.01,29.89,6,-54,16,0.00
2013-3-18,62.4,47.3,31.8,28.7,5.9,-99.9,47,23,14,30.08,29.92,3,-85,6,0.00
2013-3-19,64.7,52.0,45.2,38.3,22.1,-99.9,56,37,26,30.05,29.87,15,-61,21,0.00
2013-3-20,63.1,49.2,47.6,34.7,16.8,-99.9,53,36,30,29.88,29.75,27,-109,32,0.00
2013-3-21,55.6,43.2,35.2,31.7,12.2,-99.9,80,36,18,30.01,29.84,11,-76,13,0.00
2013-3-22,49.3,36.9,26.8,12.7,2.6,-99.9,47,27,15,30.20,30.01,9,-42,10,0.00
2013-3-23,48.4,33.6,21.5,8.7,-2.7,-99.9,48,27,16,30.32,30.12,3,-78,6,0.00
2013-3-24,59.9,41.1,28.8,17.7,-1.6,-99.9,38,21,16,30.22,29.97,4,-96,5,0.00
2013-3-25,69.4,50.9,35.9,21.8,4.7,-99.9,40,20,5,29.99,29.75,12,-66,19,0.00
2013-3-26,65.5,52.0,42.2,30.1,16.9,-99.9,50,29,21,29.83,29.71,7,-62,9,0.00
2013-3-27,66.3,50.8,38.0,31.9,24.6,-99.9,68,41,23,29.90,29.78,6,-32,8,0.00
2013-3-28,65.8,51.4,47.2,40.0,22.7,-99.9,73,41,22,30.03,29.87,14,-77,21,0.00
2013-3-29,68.8,52.9,38.1,36.5,23.6,-99.9,77,40,18,30.11,29.97,3,-50,5,0.00
2013-3-30,74.5,57.1,41.2,29.0,21.3,-99.9,53,29,14,30.06,29.80,3,-43,11,0.00
2013-3-31,55.4,46.6,38.6,40.1,25.5,-99.9,79,51,26,29.94,29.77,4,-46,8,0.00
2013-4-1,60.2,45.0,36.3,37.0,21.9,-99.9,82,51,27,30.06,29.94,5,-77,11,0.00
2013-4-2,65.4,51.0,41.2,37.0,26.2,-99.9,78,46,27,30.12,29.97,3,-50,6,0.00
2013-4-3,73.3,56.5,41.7,38.4,23.8,-99.9,72,35,13,30.08,29.88,3,-35,4,0.00
2013-4-4,68.9,55.1,46.4,35.9,25.5,-99.9,52,36,21,29.91,29.77,0,-46,0,0.00
2013-4-5,67.9,52.7,40.1,32.6,19.0,-99.9,60,32,13,29.99,29.86,0,-43,3,0.00
2013-4-6,65.0,52.5,47.3,30.1,18.8,-99.9,42,30,18,30.00,29.87,12,-51,19,0.00
2013-4-7,65.9,51.9,44.4,31.7,19.9,-99.9,50,33,19,29.94,29.53,21,-50,23,0.00
2013-4-8,46.7,39.0,34.4,33.5,19.2,-99.9,85,53,30,30.05,29.50,13,-42,20,0.00
2013-4-9,56.8,43.1,29.7,23.0,11.5,-99.9,67,34,17,30.22,30.05,10,-50,14,0.00
2013-4-10,72.8,54.9,36.4,33.8,20.8,-99.9,56,31,16,30.27,29.90,1,-43,1,0.00
2013-4-11,62.5,51.2,43.5,45.1,25.3,-99.9,93,45,19,29.97,29.82,4,-46,6,0.31
2013-4-12,67.9,51.9,37.4,31.9,16.6,-99.9,64,31,12,29.98,29.73,2,-44,3,0.00
2013-4-13,72.7,59.7,46.8,32.8,19.0,-99.9,42,22,16,29.77,29.53,4,-27,15,0.00
2013-4-14,65.2,49.2,35.2,32.7,17.1,4.4,65,29,17,29.77,29.52,3,0,8,0.00
2013-4-15,45.3,36.3,32.0,35.4,25.9,-99.9,95,75,57,29.86,29.63,10,-41,18,0.07
2013-4-16,45.4,36.2,31.8,29.0,16.0,-99.9,76,50,23,30.18,29.85,14,-42,19,0.00
2013-4-17,49.9,37.8,29.6,19.8,5.5,-99.9,53,30,16,30.35,30.18,4,-47,10,0.00
2013-4-18,59.2,43.9,29.2,23.5,7.8,-99.9,53,27,16,30.40,30.26,1,-47,3,0.00
2013-4-19,71.8,53.8,39.7,30.6,17.8,-99.9,46,28,16,30.30,29.94,7,-47,10,0.00
2013-4-20,66.5,54.2,39.7,28.7,22.9,13.9,61,32,14,30.13,29.97,6,0,8,0.00
2013-4-21,74.5,59.6,38.9,26.5,20.6,16.9,51,24,13,30.09,29.89,3,0,4,0.00
2013-4-22,66.8,56.0,42.4,33.4,23.7,5.7,56,31,17,30.11,29.89,7,0,10,0.00
2013-4-23,61.0,48.5,34.2,9.5,0.7,-15.2,28,16,4,30.20,29.94,2,0,3,0.00
2013-4-24,66.8,53.6,37.3,8.9,3.3,-5.0,23,14,7,30.12,29.88,1,0,3,0.00
2013-4-25,73.5,58.5,40.2,23.7,1.7,-34.2,30,12,1,29.99,29.89,3,0,5,0.00
2013-4-26,74.2,58.0,46.4,25.4,21.0,14.9,33,25,13,30.13,29.98,3,0,5,0.00
2013-4-30,65.0,55.3,45.9,-3.3,-7.1,-12.4,12,7,5,30.07,29.81,0,0,0,0.00
2013-5-1,62.6,49.7,35.8,8.9,-1.6,-12.3,28,13,5,30.41,30.07,2,0,9,0.00
2013-5-2,72.8,56.2,37.5,18.1,-2.5,-13.6,24,10,3,30.47,30.14,4,0,5,0.00
2013-5-3,80.2,63.5,44.1,17.8,2.0,-13.8,28,10,3,30.14,29.79,3,0,7,0.00
2013-5-4,69.5,60.6,51.8,29.4,22.6,7.8,34,24,14,29.85,29.55,1,0,8,0.00
2013-5-5,73.2,55.8,48.1,41.5,20.7,-99.9,60,33,17,29.65,29.49,6,-84,11,0.00
2013-5-6,69.8,55.9,49.6,42.5,32.8,-99.9,72,48,20,29.77,29.61,22,-25,25,0.00
2013-5-7,59.6,50.2,45.7,48.5,37.0,-99.9,92,68,47,29.91,29.77,13,-34,17,0.23
2013-5-8,51.7,37.5,48.2,48.5,10.8,-99.9,93,67,86,29.99,29.90,7,-241,9,0.01
2013-5-11,86.6,78.8,70.1,40.3,27.3,17.4,32,17,8,29.96,29.91,0,0,0,0.00
2013-5-12,89.3,76.4,60.3,41.1,33.7,24.4,42,23,10,30.00,29.81,6,0,10,0.00
2013-5-13,88.5,74.8,58.5,38.5,30.8,24.8,42,22,11,29.91,29.74,6,0,20,0.00
2013-5-14,86.0,71.6,55.8,38.6,30.7,19.0,38,24,9,29.82,29.65,3,0,7,0.00
2013-5-15,83.1,69.9,59.1,41.1,26.1,-0.7,50,24,4,29.77,29.67,9,1,15,0.00
2013-5-16,64.1,59.3,51.6,46.0,36.4,29.8,64,43,31,29.78,29.70,12,2,16,0.00
2013-5-17,71.8,55.8,49.5,42.4,23.5,-99.9,72,37,15,29.89,29.73,17,-67,22,0.00
2013-5-18,73.5,60.3,47.7,37.6,32.0,25.8,58,36,17,29.98,29.85,6,1,12,0.00
2013-5-19,70.3,59.1,49.2,38.5,27.9,14.7,62,34,12,30.10,29.97,8,0,11,0.00
2013-5-20,75.6,60.7,42.9,31.5,19.9,3.2,44,24,6,30.14,29.85,3,0,6,0.00
2013-5-21,79.7,63.5,54.1,31.5,14.4,-99.9,34,17,9,29.85,29.54,26,-46,33,0.00
2013-5-22,60.7,52.0,42.2,28.1,9.0,-9.2,48,21,6,29.76,29.57,14,1,22,0.00
2013-5-23,63.1,52.1,35.7,19.5,11.6,-0.6,33,20,10,29.94,29.74,4,0,6,0.00
2013-5-24,78.3,59.6,38.6,27.9,11.9,-32.4,50,21,1,29.94,29.70,5,0,7,0.00
2013-5-25,75.5,63.0,48.6,27.6,18.3,10.3,28,19,10,29.82,29.68,5,0,7,0.00
2013-5-26,75.4,62.4,47.7,29.7,24.4,18.7,40,25,13,29.90,29.74,2,0,9,0.00
2013-5-27,71.1,58.2,46.6,47.3,31.7,19.1,82,39,16,29.91,29.76,13,0,15,0.01
2013-5-28,68.1,59.4,51.0,47.2,37.2,28.3,83,47,24,29.80,29.72,16,2,19,0.01
2013-5-29,73.9,64.1,52.7,39.4,32.3,25.3,54,33,17,29.76,29.66,10,0,17,0.00
2013-5-30,79.3,65.0,48.7,38.2,29.0,16.3,63,30,10,29.88,29.72,3,0,9,0.00
2013-5-31,78.8,65.8,47.9,24.3,16.8,5.7,28,16,6,30.03,29.88,1,0,4,0.00
2013-6-1,86.1,71.3,52.8,31.0,18.0,10.4,38,15,6,29.96,29.68,0,0,0,0.00
2013-6-2,92.0,77.4,62.9,36.6,29.8,20.1,33,19,8,29.68,29.45,4,0,6,0.00
2013-6-3,85.6,72.0,56.0,26.5,22.9,12.5,24,16,10,29.75,29.61,1,0,9,0.00
2013-6-4,90.0,78.1,57.1,23.5,18.3,11.2,24,11,7,29.81,29.66,2,0,4,0.00
2013-6-5,92.5,77.8,61.2,32.2,20.9,4.8,27,13,4,29.85,29.67,2,0,5,0.00
2013-6-6,96.5,82.0,64.9,34.1,23.9,2.4,26,14,3,29.77,29.60,1,0,2,0.00
2013-6-7,98.1,84.8,66.3,40.4,25.7,8.8,29,14,4,29.73,29.57,8,0,11,0.00
2013-6-8,96.0,84.0,69.8,40.5,36.2,22.2,32,19,12,29.72,29.58,5,0,9,0.00
2013-6-9,101.5,84.1,68.4,43.1,30.3,22.2,32,15,8,29.66,29.44,11,1,21,0.00
2013-6-10,88.0,69.0,63.3,51.8,39.4,-99.9,63,39,24,29.67,29.39,25,-40,32,0.22
2013-6-11,87.5,72.1,54.1,49.9,39.2,27.6,73,35,12,29.76,29.67,12,1,18,0.00
2013-6-12,89.0,74.6,58.9,41.0,31.8,15.0,47,23,11,29.74,29.56,4,0,16,0.00
2013-6-13,80.0,66.8,50.8,32.6,15.8,-31.2,43,19,1,29.96,29.72,5,0,11,0.00
2013-6-14,75.5,63.1,46.2,28.6,21.9,12.2,44,23,11,30.01,29.79,5,0,8,0.00
2013-6-15,86.3,71.0,52.8,27.8,14.7,1.3,32,13,4,29.82,29.66,2,0,3,0.00
2013-6-16,85.7,74.1,58.9,29.7,22.6,13.1,22,15,7,29.85,29.75,0,0,0,0.00
2013-6-17,88.3,74.0,58.1,34.2,23.5,3.3,37,17,5,29.87,29.67,0,0,0,0.00
2013-6-18,84.3,68.2,52.7,34.2,23.4,13.0,39,20,7,29.74,29.47,2,0,5,0.00
2013-6-19,73.2,60.2,45.9,28.3,23.8,16.9,47,26,12,29.87,29.67,0,0,0,0.00
2013-6-20,74.4,61.9,45.5,31.8,27.5,23.4,49,29,16,29.92,29.74,3,0,4,0.00
2013-6-21,76.5,63.5,46.3,34.6,27.7,17.5,57,29,13,29.94,29.78,1,0,2,0.00
2013-6-22,81.6,68.1,52.2,30.9,25.8,20.3,36,22,11,29.92,29.68,0,0,0,0.00
2013-6-23,81.0,70.2,59.6,40.6,33.2,21.5,39,27,12,29.69,29.51,0,0,0,0.00
2013-6-24,67.8,61.3,52.8,53.5,42.4,32.7,82,52,32,29.75,29.55,1,0,4,0.02
2013-6-25,81.8,68.8,52.9,52.1,48.1,43.8,84,52,27,29.82,29.74,3,0,4,0.00
2013-6-26,92.4,76.0,53.7,49.3,42.3,27.3,71,35,11,29.88,29.76,3,0,3,0.00
2013-6-27,97.5,81.3,61.5,45.5,39.2,33.9,52,26,12,29.95,29.80,0,0,0,0.00
2013-6-28,103.0,87.6,71.3,47.4,36.4,25.8,32,18,7,29.89,29.63,16,0,21,0.00
2013-6-29,100.8,89.3,76.7,50.1,41.4,23.6,38,21,8,29.72,29.58,12,1,16,0.00
2013-6-30,104.0,90.3,74.5,43.0,34.9,23.7,26,15,7,29.68,29.50,10,0,14,0.00
2013-7-1,105.0,90.9,77.5,47.5,39.6,30.4,32,18,8,29.71,29.55,6,0,9,0.00
2013-7-2,106.1,85.9,75.0,51.1,40.4,-99.9,39,23,9,29.78,29.59,6,-29,28,0.00
2013-7-3,99.4,83.9,67.6,55.6,50.1,41.8,58,34,15,29.82,29.60,7,0,11,0.00
2013-7-4,96.1,79.6,67.9,64.6,53.3,48.0,79,43,21,29.71,29.48,5,0,8,0.54
2013-7-5,97.8,77.2,62.8,61.7,36.8,-99.9,87,36,6,29.58,29.44,13,-56,17,0.00
2013-7-6,96.4,80.1,62.8,45.3,32.7,18.2,52,22,6,29.58,29.44,4,0,6,0.00
2013-7-7,94.5,81.0,64.5,38.7,30.9,22.9,34,18,8,29.65,29.51,2,0,5,0.00
2013-7-8,93.4,80.7,65.6,39.9,32.5,24.5,37,20,9,29.77,29.65,7,0,12,0.00
2013-7-9,94.9,82.9,68.1,37.3,29.2,21.1,27,15,8,29.86,29.71,3,0,8,0.00
2013-7-10,95.6,82.3,66.0,41.4,32.6,25.3,32,18,10,29.84,29.65,3,0,5,0.00
2013-7-11,91.2,81.6,72.3,52.8,34.3,13.3,49,21,8,29.69,29.56,10,1,14,0.00
2013-7-12,93.0,78.9,62.3,36.7,24.5,0.0,31,16,3,29.73,29.58,3,0,4,0.00
2013-7-13,93.2,78.8,59.9,33.9,19.9,5.2,32,14,4,29.80,29.66,2,0,4,0.00
2013-7-14,94.5,81.6,64.2,35.4,25.7,17.7,27,14,7,29.83,29.63,6,0,9,0.00
2013-7-15,96.6,83.9,70.3,41.3,33.5,25.1,27,17,9,29.68,29.44,6,0,9,0.00
2013-7-16,94.7,83.1,72.2,41.8,32.7,17.4,29,18,7,29.72,29.50,12,0,14,0.00
2013-7-17,94.0,78.8,61.4,31.3,18.0,0.5,29,13,3,29.89,29.72,8,0,10,0.00
2013-7-18,99.3,84.6,69.6,33.4,17.1,-19.0,25,11,1,29.86,29.65,5,0,8,0.00
2013-7-19,103.3,89.4,75.4,41.3,26.8,6.3,29,13,3,29.71,29.52,7,0,13,0.00
2013-7-20,104.8,89.9,78.8,37.9,29.9,14.3,21,13,4,29.61,29.42,8,0,12,0.00
2013-7-21,104.5,88.0,76.0,40.7,21.7,-99.9,21,11,4,29.56,29.43,7,-47,10,0.00
2013-7-22,102.7,90.7,79.3,48.1,37.5,21.8,28,17,6,29.62,29.49,4,0,10,0.00
2013-7-23,85.7,80.6,77.4,45.7,41.8,37.9,28,25,22,29.70,29.60,14,7,19,0.00
2013-7-25,86.0,80.8,77.5,50.8,47.3,43.9,39,31,23,29.83,29.77,11,1,18,0.00
2013-7-26,97.5,76.2,69.3,62.1,41.2,-99.9,68,37,15,29.86,29.70,20,-65,29,0.10
2013-7-27,93.6,80.8,66.6,58.1,47.4,30.6,63,35,11,29.82,29.59,5,0,9,0.00
2013-7-28,94.6,81.8,71.9,47.4,40.7,30.4,39,25,11,29.66,29.48,5,0,9,0.00
2013-7-31,90.8,81.3,71.9,33.2,30.2,27.0,23,16,13,29.73,29.62,0,0,0,0.00
2013-8-1,86.1,74.6,59.8,37.0,19.5,-26.1,39,17,1,29.78,29.68,7,0,24,0.00
2013-8-2,86.4,72.1,54.1,32.0,21.9,13.6,36,17,7,29.84,29.69,3,0,6,0.00
2013-8-3,89.3,77.4,64.2,35.5,25.6,12.9,32,17,6,29.81,29.66,7,1,14,0.00
2013-8-4,93.1,81.0,68.4,40.7,30.6,19.5,32,18,7,29.79,29.62,8,0,12,0.00
2013-8-5,94.3,81.4,67.3,35.0,23.4,6.8,28,14,4,29.77,29.62,3,0,5,0.00
2013-8-6,95.5,83.1,71.8,38.7,30.6,13.1,29,17,5,29.75,29.56,9,0,17,0.00
2013-8-7,89.2,76.8,71.7,35.1,22.4,-99.9,23,15,11,29.71,29.60,8,-53,12,0.00
2013-8-8,86.5,77.9,67.1,42.6,38.1,33.6,41,25,16,29.71,29.58,11,1,21,0.00
2013-8-9,87.2,68.9,61.2,46.4,27.4,-99.9,52,27,14,29.73,29.60,6,-80,15,0.00
2013-8-10,86.5,74.6,62.7,36.3,28.8,16.9,35,20,8,29.81,29.68,11,1,17,0.22
2013-8-11,88.7,75.2,59.9,39.9,30.0,15.0,45,21,7,29.85,29.66,10,3,16,0.00
2013-8-12,91.3,75.0,65.1,36.6,23.6,-99.9,34,17,8,29.79,29.65,10,-46,14,0.00
2013-8-13,93.3,76.7,63.6,38.7,22.8,-99.9,36,17,5,29.84,29.69,8,-31,10,0.00
2013-8-14,94.7,78.8,63.7,35.7,22.0,-99.9,32,15,5,29.80,29.63,4,-27,7,0.00
2013-8-15,95.5,79.1,64.0,32.6,18.4,-99.9,26,12,3,29.76,29.63,5,-28,11,0.00
2013-8-16,94.8,77.1,61.8,33.7,15.4,-99.9,31,12,4,29.83,29.71,5,-32,9,0.00
2013-8-17,79.9,65.5,64.8,33.4,17.4,-99.9,27,18,11,29.82,29.79,3,-73,5,0.00
2013-8-20,73.1,70.8,68.5,58.7,53.5,49.7,71,55,44,29.81,29.66,2,0,6,0.08
2013-8-21,87.3,69.9,62.5,57.0,40.0,-99.9,80,43,23,29.81,29.69,7,-78,17,0.00
2013-8-22,88.1,72.6,62.0,53.3,36.5,-99.9,70,33,13,29.81,29.63,15,-54,23,0.00
2013-8-23,87.0,71.2,58.7,41.5,27.0,-99.9,52,23,11,29.74,29.56,8,-48,10,0.00
2013-8-24,71.8,71.2,70.7,32.3,31.8,31.3,24,23,23,29.64,29.64,1,0,5,0.00
2013-8-25,79.2,71.3,66.1,40.1,38.5,34.9,37,31,21,29.77,29.67,0,0,0,0.00
2013-8-26,86.1,69.9,55.3,42.7,31.8,-99.9,56,29,13,29.85,29.70,1,-36,4,0.00
2013-8-27,88.4,71.4,59.7,54.9,36.3,-99.9,53,32,19,29.78,29.59,2,-32,3,0.00
2013-8-28,89.9,72.6,60.7,53.6,39.8,-99.9,67,36,21,29.75,29.64,6,-51,8,0.00
2013-8-29,91.0,74.8,64.8,46.0,32.9,-99.9,48,26,9,29.85,29.74,6,-47,9,0.00
2013-8-30,91.8,74.3,60.5,40.5,28.0,-99.9,44,21,11,29.91,29.73,3,-43,5,0.00
2013-8-31,91.8,69.4,62.4,36.2,21.3,-99.9,34,20,13,29.82,29.74,1,-78,5,0.00
2013-9-3,87.2,78.2,70.8,56.5,53.5,47.5,59,44,26,29.78,29.65,6,0,10,0.00
2013-9-4,90.3,73.1,62.5,56.2,40.5,-99.9,73,39,20,29.83,29.66,7,-62,10,0.00
2013-9-5,91.7,74.2,63.9,48.8,31.8,-99.9,54,28,8,29.73,29.60,25,-58,33,0.00
2013-9-8,89.9,81.4,69.2,39.0,25.2,15.9,31,13,8,29.78,29.63,0,0,0,0.00
2013-9-9,86.1,71.4,60.9,40.2,27.0,-99.9,34,21,11,29.78,29.63,0,-32,1,0.00
2013-9-10,86.2,70.7,59.3,38.5,25.7,-99.9,36,21,11,29.77,29.66,2,-43,3,0.00
2013-9-11,89.2,73.1,62.6,39.0,26.6,-99.9,34,20,12,29.79,29.68,2,-44,4,0.00
2013-9-12,84.6,70.5,65.5,56.3,43.3,-99.9,59,41,26,29.77,29.67,4,-31,17,0.00
2013-9-13,86.1,66.7,59.8,53.8,37.5,-99.9,69,43,26,29.78,29.61,8,-81,10,0.00
2013-9-14,86.8,70.5,59.2,50.5,36.4,-99.9,63,35,21,29.69,29.55,7,-62,10,0.00
2013-9-15,92.2,72.7,60.1,47.9,29.9,-99.9,52,26,10,29.63,29.50,4,-62,11,0.00
2013-9-16,89.4,71.9,55.9,37.7,27.5,-99.9,46,22,12,29.69,29.51,3,-47,4,0.00
2013-9-17,82.0,66.8,56.6,38.9,24.0,-99.9,48,24,7,29.75,29.44,22,-47,33,0.00
2013-9-18,70.1,55.6,45.6,37.4,25.7,-99.9,66,37,20,29.93,29.74,5,-46,6,0.00
2013-9-19,77.8,58.4,43.7,28.6,17.1,-99.9,53,25,12,29.98,29.76,3,-62,4,0.00
2013-9-20,86.3,65.6,52.1,29.5,17.9,-99.9,37,19,8,29.77,29.50,0,-47,1,0.00
2013-9-21,72.4,57.1,49.7,40.9,25.4,-99.9,65,35,19,29.67,29.46,7,-51,26,0.00
2013-9-22,69.6,53.0,46.6,37.2,22.5,-99.9,64,39,19,29.89,29.67,5,-82,12,0.00
2013-9-23,74.8,58.4,46.4,41.2,28.4,-99.9,73,39,20,29.97,29.80,5,-50,6,0.00
2013-9-24,78.4,63.1,54.7,34.6,19.2,-99.9,37,22,10,29.82,29.56,1,-47,6,0.00
2013-9-25,58.7,47.5,41.1,37.1,21.6,-99.9,74,44,25,29.78,29.58,6,-62,17,0.00
2013-9-26,53.9,40.5,37.5,34.5,13.3,-99.9,74,47,32,30.04,29.78,9,-128,13,0.00
2013-9-27,60.6,44.5,35.2,31.9,14.2,-99.9,74,40,24,30.17,30.04,3,-100,5,0.00
2013-9-28,70.0,35.9,39.3,29.1,0.4,-99.9,56,37,21,30.10,29.89,5,-197,6,0.00
2013-9-29,73.7,69.7,64.1,28.9,27.5,25.4,26,21,19,29.84,29.76,0,0,0,0.00
2013-9-30,74.3,61.8,54.4,38.9,24.0,-99.9,52,28,17,29.83,29.74,0,-64,13,0.00
2013-10-1,76.2,56.7,44.7,41.1,25.4,-99.9,74,38,18,29.86,29.75,4,-66,12,0.00
2013-10-2,73.1,49.6,43.2,29.6,14.8,-99.9,51,33,7,29.89,29.71,0,-90,1,0.00
2013-10-7,63.8,60.7,58.4,20.2,17.7,14.2,22,19,15,29.80,29.77,0,0,0,0.00
2013-10-8,62.4,49.3,44.5,28.1,11.4,-99.9,46,28,19,29.87,29.60,1,-101,3,0.00
2013-10-9,55.4,44.7,45.4,35.7,16.2,-99.9,67,42,30,29.70,29.55,11,-104,15,0.00
2013-10-10,64.2,48.5,43.9,33.9,16.4,-99.9,63,37,24,29.89,29.70,3,-98,6,0.00
2013-10-11,66.5,55.0,42.6,35.5,28.4,-99.9,63,37,22,30.00,29.87,7,-4,8,0.00
2013-10-12,50.7,33.8,44.5,33.5,-10.8,-99.9,62,32,36,29.91,29.83,0,-303,0,0.00
2013-10-13,54.9,42.7,37.5,38.8,23.2,-99.9,79,58,43,30.17,29.83,2,-80,3,0.00
2013-10-14,58.2,40.3,33.8,32.4,9.6,-99.9,81,45,28,30.29,30.15,2,-155,6,0.00
2013-10-19,69.0,54.5,38.1,22.5,12.3,-99.9,43,22,14,30.18,30.04,4,-60,5,0.00
2013-10-20,72.0,51.1,40.4,23.1,5.6,-99.9,37,21,13,30.07,29.94,6,-111,7,0.00
2013-10-21,69.8,50.9,41.5,23.6,8.5,-99.9,41,23,15,30.09,29.96,3,-100,3,0.00
2013-10-22,70.9,51.3,42.7,26.2,10.8,-99.9,44,26,16,30.11,29.95,1,-96,1,0.00
2013-10-23,71.3,51.8,42.9,24.7,9.1,-99.9,42,23,14,30.02,29.89,1,-100,5,0.00
2013-10-24,72.1,52.1,43.9,22.6,7.2,-99.9,36,21,12,30.03,29.92,4,-100,8,0.00
2013-10-25,73.3,52.7,44.8,20.8,5.6,-99.9,36,19,11,30.14,30.03,2,-100,7,0.00
2013-10-26,70.1,50.5,40.2,20.2,4.3,-99.9,37,20,12,30.20,30.03,2,-105,4,0.00
2013-10-27,73.3,53.0,41.8,32.1,10.6,-99.9,68,24,10,30.03,29.34,0,-72,0,0.00
2013-10-28,44.3,35.2,33.6,36.4,18.1,-99.9,97,70,59,29.79,29.38,1,-116,6,0.19
2013-10-29,38.3,28.6,32.0,35.9,6.8,-99.9,96,73,88,30.14,29.79,0,-201,0,0.21
2013-10-30,47.5,36.9,33.1,35.3,22.5,-99.9,93,71,58,30.25,30.13,1,-82,4,0.00
2013-10-31,54.2,37.3,31.1,38.0,16.4,-99.9,95,63,45,30.35,30.23,3,-134,4,0.00
2013-11-1,58.3,39.8,33.3,40.0,17.0,-99.9,92,61,46,30.33,30.10,3,-145,5,0.00
2013-11-2,60.9,43.3,36.1,39.9,16.5,-99.9,92,51,33,30.10,29.80,6,-136,9,0.00
2013-11-3,46.4,37.0,38.0,33.2,4.5,-99.9,62,36,24,30.02,29.89,5,-129,11,0.00
2013-11-4,47.1,33.0,30.7,22.0,-1.5,-99.9,68,36,27,30.23,29.99,3,-167,4,0.00
2013-11-5,52.1,34.7,28.9,24.8,1.3,-99.9,68,38,24,30.37,30.22,6,-151,8,0.00
2013-11-6,57.1,37.9,31.8,29.3,3.7,-99.9,69,38,26,30.43,30.27,4,-166,8,0.00
2013-11-7,61.7,42.6,40.8,31.2,4.5,-99.9,60,32,19,30.28,30.01,6,-168,8,0.00
2013-11-8,63.5,45.1,39.9,28.3,9.4,-99.9,59,32,21,30.06,29.89,3,-118,6,0.00
2013-11-9,60.9,41.8,36.4,32.4,9.8,-99.9,76,41,28,30.11,29.99,5,-149,7,0.00
2013-11-10,61.4,35.4,38.1,29.5,-2.5,-99.9,62,37,24,30.18,30.10,4,-230,5,0.00
2013-11-11,63.2,43.6,35.4,26.7,6.7,-99.9,63,32,19,30.23,30.12,3,-133,5,0.00
2013-11-12,59.4,42.5,39.8,27.4,5.4,-99.9,50,32,26,30.33,30.20,2,-157,2,0.00
2013-11-13,63.4,41.8,38.5,31.4,5.1,-99.9,69,35,29,30.31,30.18,6,-180,7,0.00
2013-11-14,65.8,44.4,34.4,31.1,9.9,-99.9,76,36,22,30.18,29.76,4,-136,6,0.00
2013-11-15,47.2,35.4,35.5,33.2,9.6,-99.9,88,50,40,29.85,29.71,10,-136,11,0.00
2013-11-16,59.0,37.8,37.0,29.2,-0.0,-99.9,73,36,26,29.85,29.66,7,-207,9,0.00
2013-11-17,45.2,25.3,34.3,30.2,-17.4,-99.9,74,41,52,29.99,29.85,2,-353,3,0.00
2013-11-20,52.0,42.6,33.9,43.4,39.2,32.6,95,88,69,29.90,29.73,7,0,11,0.42
2013-11-21,33.9,24.9,27.4,32.9,2.8,-99.9,97,69,65,30.42,29.90,10,-182,14,0.04
2013-11-22,40.9,26.2,25.3,25.9,-5.4,-99.9,75,46,39,30.50,30.31,6,-207,8,0.02
2013-11-23,45.5,29.9,27.3,25.7,-0.7,-99.9,81,44,32,30.32,30.20,5,-170,6,0.02
2013-11-24,45.6,29.5,26.2,26.8,2.8,-99.9,88,53,39,30.42,30.24,4,-166,8,0.00
2013-11-25,44.9,29.1,25.8,28.9,3.6,-99.9,91,59,46,30.51,30.41,3,-181,5,0.00
2013-11-26,45.9,30.9,27.4,31.9,7.3,-99.9,92,61,54,30.45,30.21,2,-168,3,0.01
2013-11-27,48.1,31.3,28.0,35.5,6.7,-99.9,92,62,54,30.22,30.01,4,-186,5,0.00
2013-11-28,49.7,31.5,29.9,34.5,6.7,-99.9,91,61,50,30.22,30.05,2,-185,4,0.00
2013-11-29,38.1,18.8,30.3,31.7,-27.7,-99.9,88,47,78,30.32,30.21,1,-442,5,0.00
2013-12-2,66.1,57.4,48.6,33.2,23.1,12.2,54,29,13,30.01,29.67,23,2,30,0.00
2013-12-3,49.8,22.4,22.0,34.5,-10.7,-99.9,91,55,55,29.87,29.53,8,-281,14,0.00
2013-12-4,24.0,15.9,13.4,17.3,-9.6,-99.9,82,59,61,30.27,30.00,7,-196,9,0.00
2013-12-5,26.0,16.2,14.1,13.7,-11.4,-99.9,85,54,51,30.30,30.21,4,-200,7,0.00
2013-12-6,28.6,15.6,12.0,17.3,-17.3,-99.9,87,53,57,30.27,30.10,6,-270,9,0.00
2013-12-7,27.4,12.5,24.4,21.1,-42.7,-99.9,85,35,60,30.06,29.85,9,-513,9,0.00
2013-12-11,23.4,12.3,4.8,15.9,-12.3,-99.9,89,61,58,30.77,30.67,2,-192,3,0.00
2013-12-12,29.0,13.6,5.3,15.1,-10.1,-99.9,89,62,53,30.69,30.50,2,-182,4,0.00
2013-12-13,29.3,15.6,9.9,22.6,-8.0,-99.9,91,67,67,30.76,30.49,4,-201,5,0.00
2013-12-14,31.4,17.2,10.7,20.6,-5.5,-99.9,92,65,61,30.86,30.74,3,-181,4,0.00
2013-12-15,37.7,20.4,13.2,23.3,3.0,-99.9,91,69,53,30.81,30.64,4,-121,6,0.00
2013-12-16,34.3,20.1,13.7,25.9,-2.8,-99.9,93,66,65,30.75,30.62,3,-182,4,0.00
2013-12-17,34.4,20.4,15.4,26.3,-1.9,-99.9,93,69,68,30.67,30.39,2,-190,3,0.00
2013-12-18,34.6,23.2,20.1,28.7,1.7,-99.9,93,70,72,30.39,29.81,4,-182,6,0.00
2013-12-19,36.3,22.2,13.7,29.7,-5.8,-99.9,90,57,56,30.18,29.81,17,-213,21,0.00
2013-12-20,31.4,19.5,10.3,22.1,-3.0,-99.9,87,62,57,30.30,30.14,4,-162,5,0.00
2013-12-21,41.5,17.5,23.1,32.8,-23.9,-99.9,85,49,70,30.16,30.09,6,-377,11,0.00
2013-12-22,50.9,49.5,48.4,35.5,35.0,33.9,59,57,55,30.35,30.33,3,0,5,0.00
2013-12-23,41.0,34.9,31.6,34.3,31.4,29.3,93,87,76,30.49,30.47,3,1,4,0.00
2013-12-24,46.1,28.2,26.6,37.1,-1.4,-99.9,93,61,68,30.55,30.46,3,-256,6,0.00
2013-12-25,30.2,15.8,22.8,28.7,-28.3,-99.9,95,53,91,30.63,30.57,2,-432,3,0.00
2013-12-26,38.4,24.5,22.9,33.2,5.7,-99.9,96,76,80,30.62,30.51,5,-169,7,0.00
2013-12-27,29.0,20.8,16.7,28.0,2.7,-99.9,97,79,93,30.57,30.35,2,-172,3,0.00
2013-12-28,38.7,23.6,20.8,34.1,1.8,-99.9,97,74,77,30.51,30.32,4,-197,8,0.00
2013-12-29,35.0,21.3,13.2,30.0,2.3,-99.9,96,76,80,30.59,30.49,4,-166,7,0.00
2013-12-30,38.0,24.0,16.6,32.3,4.9,-99.9,96,75,72,30.56,30.42,3,-168,11,0.00
2013-12-31,46.1,27.5,26.0,33.3,2.7,-99.9,95,64,58,30.46,30.33,5,-199,6,0.00
2014-1-1,41.9,20.4,24.2,30.8,-15.6,-99.9,93,57,63,30.46,30.37,4,-333,6,0.00
2014-1-2,47.2,30.0,25.0,30.7,2.7,-99.9,90,57,49,30.39,30.24,3,-198,5,0.00